Regional Weather Roundup
Issued by NWS

Home | Current Version | Previous Version | Text Only | Print | Product List | Glossary Off
Versions: 1 2 3 4 5 6 7 8 9 10 11 12 13 14 15 16 17 18 19 20 21 22 23 24 25 26 27 28 29 30 31 32 33 34 35 36 37 38 39 40 41 42 43 44 45 46 47 48 49 50

361
ASUS45 KABQ 250501
RWRNM
NEW MEXICO REGIONAL WEATHER ROUNDUP
NATIONAL WEATHER SERVICE ALBUQUERQUE NM
1100 PM MDT THU MAY 24 2018

NOTE: "FAIR" MEANS FEW OR NO CLOUDS BELOW 12,000 FEET AGL WITH NO
       SIGNIFICANT WEATHER OR OBSTRUCTIONS TO VISION.

      THIS PRODUCT IS RELEASED AS TWO VERSIONS.  ONE VERSION NEAR
      THE TOP OF THE HOUR CONTAINING PRELIMINARY DATA FROM ALBUQUERQUE
      AND OTHER STATIONS.  A FINAL VERSION WITH ADDITIONAL DATA IS
      ISSUED ABOUT 10 MINUTES AFTER THE HOUR.

NMZ501-503-504-510>518-250600-
NORTHWEST PLATEAU/NORTHCENTRAL MOUNTAINS

CITY           SKY/WX    TMP DP  RH WIND       PRES   REMARKS
FARMINGTON     FAIR      61  11  14 N6        30.11R
LOS ALAMOS     FAIR      68  20  16 W9        30.27R
SANTA FE       FAIR      63  27  25 NE7       30.19R
TAOS           FAIR      53  17  24 E6        30.27R
ANGEL FIRE     FAIR      43  29  56 S3        30.34S

$$
NMZ402-403-502-505>509-250600-
WESTCENTRAL MOUNTAINS/SOUTHWEST MOUNTAINS

CITY           SKY/WX    TMP DP  RH WIND       PRES   REMARKS
GALLUP         FAIR      58  12  16 CALM      30.22R
GRANTS         FAIR      67  21  18 NW6       30.23R
SILVER CITY    FAIR      64  14  14 N9        30.19R

$$
NMZ407-409-411-412-250600-
SOUTHERN DESERTS

CITY           SKY/WX    TMP DP  RH WIND       PRES   REMARKS
DEMING         FAIR      70  11  10 NW9       30.10R
LAS CRUCES     FAIR      65   6   9 NW3       30.11S
ALAMOGORDO     FAIR      72  23  16 SE7       30.08S
T OR C         FAIR      72   4   7 W5        30.11R

$$
NMZ519>523-250600-
CENTRAL VALLEYS/CENTRAL HIGHLANDS

CITY           SKY/WX    TMP DP  RH WIND       PRES   REMARKS
ALBUQUERQUE    FAIR      70  19  14 S9        30.11S
DOUBLE EAGLE   FAIR      71  18  13 S10       30.15S
MORIARTY ARPT  FAIR      57  36  44 CALM      30.21R
CLINES CORNERS FAIR      60  24  25 SW10      30.27S
BELEN          FAIR      72  14  11 SE9       30.11S
SOCORRO        FAIR      69  16  13 S7        30.09S

$$
NMZ524>526-539-540-250600-
SOUTHCENTRAL MOUNTAINS

CITY           SKY/WX    TMP DP  RH WIND       PRES   REMARKS
RUIDOSO        FAIR      64  46  52 S7        30.29F

$$
NMZ527>531-250600-
NORTHEAST HIGHLANDS/NORTHEAST PLAINS

CITY           SKY/WX    TMP DP  RH WIND       PRES   REMARKS
LAS VEGAS      FAIR      62  22  21 SW8       30.23R
RATON          FAIR      58  31  35 E9        30.15R
CLAYTON        FAIR      64  48  56 SW7       30.06S

$$
NMZ532>537-250600-
EASTCENTRAL PLAINS

CITY           SKY/WX    TMP DP  RH WIND       PRES   REMARKS
SANTA ROSA     FAIR      73  41  30 CALM      30.09S
TUCUMCARI      FAIR      70  51  51 SW6       30.02R
CANNON AFB     NOT AVBL
CLOVIS AIRPORT FAIR      68  54  60 S7        30.09

$$
NMZ028-029-538-250600-
SOUTHEAST PLAINS

CITY           SKY/WX    TMP DP  RH WIND       PRES   REMARKS
ROSWELL        FAIR      74  56  53 SW9       30.04R
ARTESIA        FAIR      77  52  41 S12       30.04S
CARLSBAD       FAIR      76  51  41 S9        30.02S
HOBBS          FAIR      75  57  53 S13       30.08R


$$




USA.gov is the U.S. government's official web portal to all federal, state and local government web resources and services.